Wind_Speed
41 45 48 48 49 48 45 43 44 44 44 41 42 42 40 36 33 29 26 24 24 23 23 21 19 18 18 20 23 25 28 30 42 53 49 53 53 54 55 56 57 55 52
40 45 48 52 53 53 51 48 47 47 43 41 43 43 42 38 35 32 29 26 26 24 23 21 19 18 19 21 24 27 29 30 36 50 54 54 54 53 54 56 58 56 53
44 47 49 51 54 56 56 54 51 49 44 43 45 46 45 40 37 34 31 29 27 25 22 21 19 18 20 23 25 28 29 32 34 42 55 54 54 52 55 55 58 59 54
45 47 48 50 51 54 55 56 54 51 46 46 48 47 45 42 39 37 33 30 27 25 23 21 19 18 20 23 27 29 29 31 34 39 46 52 53 52 50 52 54 48 48
45 49 49 47 49 53 53 51 52 50 46 45 46 48 47 45 43 39 35 30 28 26 23 21 21 19 21 25 27 27 29 30 32 37 45 50 52 45 41 49 53 56 53
51 52 51 51 50 52 49 49 49 47 44 44 48 50 49 48 44 39 36 31 29 26 24 23 20 19 20 23 25 23 24 25 31 35 41 43 54 49 46 48 52 53 62
50 52 52 51 51 49 48 47 47 45 44 46 50 51 50 47 43 41 36 31 28 26 24 23 19 19 21 22 21 23 21 21 26 31 40 44 53 50 52 55 53 54 62
45 47 48 49 48 46 47 46 44 44 45 48 50 51 50 47 45 42 37 32 28 26 24 21 19 20 20 19 22 23 25 26 30 32 38 42 46 48 48 53 57 58 59
35 37 40 43 44 45 45 45 44 45 45 47 49 50 50 47 44 40 36 31 27 24 23 22 19 20 16 19 20 23 26 30 33 34 38 38 37 41 45 49 54 53 61
29 34 38 41 42 41 42 42 41 42 44 47 47 48 48 47 43 39 36 29 25 26 26 21 20 15 17 16 17 21 30 34 34 35 38 41 41 40 37 31 35 43 47
24 28 31 34 37 37 37 36 39 42 44 47 47 48 49 45 40 37 35 28 28 28 24 21 15 14 15 16 15 23 27 27 31 34 36 39 39 37 36 33 31 37 46
24 25 26 29 31 33 35 36 37 41 44 46 46 48 48 44 40 37 34 27 30 26 23 18 13 13 13 14 18 20 22 23 27 31 34 37 39 39 38 36 36 40 43
28 26 23 25 29 29 31 36 38 40 44 46 49 51 50 46 41 39 32 31 32 28 24 17 16 13 10 11 16 19 19 20 24 29 34 37 39 40 42 40 39 44 47
35 30 27 26 28 28 30 34 37 42 46 49 51 53 53 49 44 39 33 31 28 26 22 16 14 10 9 10 14 15 16 19 24 29 34 38 40 42 45 41 45 47 50
37 36 34 36 37 36 33 33 38 42 46 48 52 55 55 51 45 35 32 32 29 23 19 17 13 9 10 12 13 15 17 20 25 29 34 39 41 43 47 42 41 49 50
37 40 38 36 39 40 39 40 43 46 47 48 49 52 53 46 40 36 32 28 23 23 19 15 11 10 12 13 13 15 16 21 24 29 32 37 41 42 46 44 42 48 50
43 39 37 38 42 42 41 41 41 33 40 36 34 47 50 44 36 32 28 24 24 20 15 13 11 11 10 12 13 15 18 20 25 29 33 37 40 44 44 42 48 47 50
42 43 42 38 39 40 41 40 40 43 38 34 29 36 41 35 31 28 28 26 25 20 17 12 11 10 11 12 13 16 18 21 26 31 34 38 42 44 42 46 49 49 50
36 38 39 43 44 41 38 36 37 35 38 43 38 32 37 34 33 30 31 25 22 19 14 12 11 10 12 13 14 16 19 22 27 32 35 39 43 45 42 49 51 50 50
33 35 37 39 40 36 35 34 35 39 41 41 42 45 44 42 41 36 26 26 22 16 12 11 9 10 13 14 15 17 20 24 27 32 36 40 44 44 48 50 52 53 52
34 36 37 35 34 33 32 36 41 44 45 44 48 46 46 46 39 30 29 24 20 15 12 10 9 11 12 13 15 18 21 24 26 32 37 41 44 47 50 51 52 52 52
32 32 31 30 30 30 31 38 45 46 47 50 47 44 43 36 34 30 27 23 17 14 11 8 9 12 13 13 15 19 21 25 26 31 36 41 45 51 50 52 53 52 51
23 25 24 24 24 28 34 40 44 47 49 50 47 44 39 38 33 29 24 20 16 12 9 8 10 12 13 13 15 18 21 24 25 29 36 43 47 50 51 52 53 53 52
15 18 20 22 26 31 35 39 42 47 48 46 46 41 38 36 31 26 22 18 13 10 8 9 11 12 12 13 14 16 18 21 22 26 33 43 45 48 51 53 53 53 53
12 16 19 24 29 33 35 37 40 41 44 43 39 35 36 31 27 23 19 14 11 9 9 10 11 13 14 13 14 16 16 18 19 23 34 41 41 46 50 51 52 53 52
12 16 20 24 28 30 33 36 40 42 41 38 34 33 30 26 22 18 15 12 10 10 10 11 12 13 14 14 14 15 16 17 20 23 34 38 39 45 49 49 50 51 52
Wind_Direction
237 237 237 234 236 236 237 238 241 241 242 236 232 230 229 230 229 230 236 245 254 260 265 265 268 274 282 290 295 298 298 297 297 300 303 304 307 309 310 310 309 312 313
243 244 243 241 242 241 239 239 240 240 238 236 231 228 229 229 229 232 237 244 252 256 259 261 264 273 282 287 291 293 294 296 297 299 301 304 306 309 310 311 314 314 314
246 247 246 246 246 246 244 243 241 240 236 233 229 230 229 227 229 232 236 242 249 253 255 256 257 265 278 286 292 293 294 295 297 296 300 303 307 312 313 315 315 315 314
254 252 248 249 250 250 247 245 242 241 237 232 230 229 227 228 228 231 234 239 247 251 253 251 256 268 280 289 292 293 294 297 296 295 299 305 311 316 315 313 308 304 301
256 251 249 252 252 250 247 246 243 240 237 233 229 226 226 226 227 229 233 238 243 247 250 251 258 273 284 289 291 289 294 295 301 305 306 308 304 304 302 301 298 302 300
258 254 250 249 249 248 246 243 241 236 233 231 227 226 225 225 226 228 232 236 241 245 248 249 260 272 286 289 284 290 289 295 297 295 292 288 295 298 300 298 296 297 298
259 254 249 249 247 246 244 239 236 234 231 228 226 225 224 224 225 227 232 235 239 245 248 254 262 279 283 280 284 288 291 285 278 285 287 288 295 299 301 297 291 290 287
260 255 249 245 243 243 240 237 233 229 228 226 226 224 223 221 223 227 231 233 236 240 249 258 270 278 275 280 286 292 299 304 304 303 296 296 294 297 295 294 295 291 290
259 256 251 247 243 240 236 233 229 227 224 222 225 225 223 220 222 226 229 230 235 246 253 256 267 267 280 286 289 298 299 301 303 298 293 290 290 291 291 289 284 286 285
268 258 250 246 242 240 235 232 229 226 226 223 222 223 223 221 221 225 229 230 237 242 246 254 259 272 278 284 289 302 295 299 302 301 302 302 302 304 305 293 290 286 283
289 274 262 254 248 244 238 235 231 226 222 223 221 220 219 219 219 223 229 229 237 240 243 245 249 261 275 281 279 278 291 299 298 300 303 306 310 318 319 316 301 288 284
311 296 274 260 249 241 236 233 230 227 224 222 219 217 216 214 214 220 226 231 234 237 240 243 251 259 266 277 284 293 297 300 306 307 310 316 320 321 321 317 305 295 288
299 294 278 268 251 244 238 234 227 225 224 223 219 214 212 211 213 218 218 225 235 232 234 231 235 244 265 283 289 296 302 311 314 317 321 323 323 324 322 322 309 304 299
284 277 276 265 260 255 247 241 235 230 223 220 218 216 211 208 209 211 211 217 218 225 224 220 230 239 258 274 287 295 315 325 325 325 326 328 327 330 329 328 310 310 304
277 267 258 252 254 250 249 250 245 243 237 229 222 218 214 211 210 212 216 219 219 221 215 217 223 243 260 272 289 309 323 329 330 330 329 331 330 334 334 330 308 308 302
286 272 259 252 251 246 241 237 233 233 232 231 230 223 216 220 210 205 208 206 208 219 207 211 218 236 258 282 300 316 330 331 329 331 331 333 332 332 334 326 309 307 302
277 279 266 257 250 244 241 237 235 227 226 212 207 217 216 211 212 209 204 181 192 208 211 217 229 249 270 290 307 325 333 335 331 334 335 335 335 337 329 317 313 310 305
267 267 270 266 259 253 246 240 229 221 203 192 195 200 208 198 186 173 175 182 201 194 205 219 244 262 280 293 308 325 330 333 335 335 335 337 342 337 326 315 316 313 309
273 267 263 260 255 249 243 234 224 205 192 181 172 166 166 177 169 171 201 201 197 194 199 222 247 270 282 294 312 322 329 334 335 335 337 340 344 341 322 319 317 315 312
266 266 264 255 247 239 231 221 202 187 183 175 171 165 163 162 171 187 197 188 192 196 204 226 251 273 283 296 313 318 327 333 335 337 338 342 344 341 328 324 321 317 315
268 261 254 247 238 232 223 206 188 182 178 171 175 178 180 183 188 188 184 185 191 196 209 227 253 270 281 301 313 320 327 332 334 337 340 342 345 335 340 330 322 320 317
263 252 244 236 229 220 207 192 185 181 178 184 184 178 183 185 183 179 180 185 190 201 214 236 259 272 284 302 318 321 323 331 334 338 339 342 344 340 342 332 327 324 322
245 238 228 221 216 205 192 190 184 182 189 191 180 173 181 180 179 180 182 185 194 204 223 247 265 276 286 303 316 317 320 329 331 337 339 343 339 343 343 336 331 329 327
223 216 209 200 192 185 182 181 183 188 190 179 176 177 175 177 178 179 182 189 198 212 236 259 275 283 288 296 304 313 317 325 328 337 340 341 333 345 345 342 339 337 333
193 190 187 183 180 179 180 181 183 182 176 173 174 174 172 172 174 179 185 191 203 223 245 266 280 291 295 298 303 313 319 320 328 344 342 332 336 345 345 345 346 344 343
171 174 176 179 180 183 184 180 172 169 168 169 168 167 169 171 175 180 188 198 214 233 252 268 284 290 292 295 304 314 323 328 336 352 337 334 341 343 347 347 349 350 348
Height
1396 1399 1402 1404 1406 1410 1412 1415 1421 1426 1433 1438 1440 1445 1450 1455 1457 1459 1461 1463 1462 1460 1465 1464 1464 1462 1463 1464 1465 1462 1461 1459 1450 1438 1437 1436 1432 1430 1426 1423 1418 1411 1406
1387 1389 1392 1395 1398 1399 1402 1405 1410 1414 1421 1428 1432 1435 1439 1443 1448 1451 1452 1455 1454 1453 1455 1457 1457 1457 1458 1457 1456 1456 1454 1452 1446 1434 1430 1430 1426 1422 1416 1409 1406 1401 1397
1378 1379 1381 1384 1387 1389 1390 1395 1400 1404 1410 1415 1422 1424 1428 1432 1438 1442 1444 1448 1447 1447 1447 1449 1448 1448 1451 1451 1448 1447 1446 1446 1441 1433 1419 1420 1417 1414 1406 1400 1397 1392 1387
1369 1370 1369 1370 1374 1378 1378 1382 1388 1393 1399 1405 1412 1415 1421 1423 1427 1432 1436 1438 1440 1441 1440 1441 1441 1440 1441 1443 1442 1441 1439 1436 1435 1430 1419 1409 1409 1407 1403 1394 1386 1386 1379
1358 1356 1356 1359 1362 1369 1366 1370 1377 1382 1388 1396 1401 1406 1410 1412 1416 1421 1429 1430 1432 1434 1434 1434 1434 1432 1433 1434 1433 1433 1433 1429 1424 1422 1416 1407 1401 1402 1402 1395 1385 1373 1367
1344 1343 1346 1346 1348 1354 1354 1357 1365 1370 1377 1386 1391 1395 1397 1401 1408 1414 1419 1421 1424 1425 1427 1426 1426 1424 1425 1426 1426 1423 1424 1423 1422 1418 1414 1410 1399 1397 1393 1389 1381 1371 1348
1329 1329 1330 1335 1338 1340 1342 1346 1351 1358 1366 1374 1380 1386 1388 1393 1400 1405 1409 1413 1415 1418 1421 1421 1417 1418 1419 1418 1417 1417 1417 1418 1417 1416 1408 1404 1393 1393 1386 1377 1375 1365 1349
1316 1317 1320 1323 1326 1329 1333 1337 1341 1346 1352 1361 1370 1375 1380 1384 1390 1394 1399 1404 1407 1408 1413 1413 1412 1413 1413 1410 1410 1408 1408 1406 1406 1404 1401 1395 1390 1385 1382 1373 1362 1351 1338
1306 1309 1312 1315 1316 1317 1320 1325 1331 1336 1343 1348 1359 1368 1373 1381 1385 1389 1390 1395 1398 1402 1404 1404 1404 1407 1405 1405 1403 1402 1401 1399 1397 1396 1393 1387 1383 1377 1373 1364 1350 1344 1326
1301 1303 1304 1307 1309 1309 1314 1320 1323 1330 1337 1343 1348 1359 1366 1373 1376 1382 1384 1389 1390 1393 1396 1395 1397 1398 1398 1396 1395 1396 1393 1392 1388 1383 1379 1375 1370 1364 1358 1352 1344 1334 1324
1298 1298 1299 1301 1304 1307 1310 1313 1318 1324 1328 1336 1341 1349 1356 1366 1368 1374 1377 1379 1384 1386 1387 1388 1386 1388 1390 1391 1390 1386 1385 1383 1378 1373 1369 1364 1358 1350 1343 1337 1333 1328 1315
1296 1295 1296 1297 1297 1299 1303 1305 1309 1317 1321 1326 1333 1341 1349 1354 1357 1364 1368 1371 1376 1377 1380 1381 1382 1381 1381 1383 1382 1379 1375 1373 1369 1365 1359 1353 1345 1338 1332 1326 1319 1313 1305
1296 1293 1291 1291 1293 1292 1295 1298 1302 1306 1312 1318 1324 1328 1337 1343 1348 1354 1358 1362 1364 1365 1368 1367 1370 1371 1373 1374 1376 1373 1367 1363 1360 1356 1349 1342 1337 1328 1319 1310 1304 1297 1287
1295 1289 1285 1287 1289 1288 1288 1292 1296 1298 1301 1306 1314 1322 1326 1330 1336 1343 1350 1356 1359 1359 1361 1363 1366 1365 1364 1364 1367 1367 1361 1355 1351 1347 1340 1333 1326 1317 1308 1300 1290 1280 1271
1284 1280 1276 1277 1277 1280 1280 1283 1287 1291 1294 1295 1301 1309 1318 1325 1328 1337 1343 1350 1355 1356 1359 1360 1361 1361 1362 1361 1359 1359 1353 1348 1345 1340 1333 1325 1317 1308 1298 1290 1283 1272 1262
1271 1270 1267 1264 1267 1268 1269 1270 1274 1280 1285 1292 1298 1303 1312 1325 1328 1331 1336 1340 1349 1355 1356 1357 1356 1355 1356 1358 1353 1351 1346 1341 1339 1333 1328 1320 1311 1301 1289 1280 1275 1266 1251
1261 1260 1257 1254 1257 1258 1256 1255 1266 1279 1277 1281 1288 1293 1304 1315 1323 1329 1330 1334 1339 1346 1352 1355 1354 1353 1351 1351 1348 1342 1338 1336 1332 1327 1321 1314 1305 1293 1283 1273 1264 1253 1238
1249 1248 1247 1245 1247 1247 1250 1250 1251 1259 1274 1278 1284 1282 1293 1309 1318 1324 1328 1326 1332 1336 1344 1350 1351 1346 1347 1346 1343 1335 1332 1329 1325 1320 1315 1307 1296 1286 1275 1266 1254 1242 1229
1235 1235 1232 1235 1237 1239 1238 1242 1248 1256 1269 1264 1274 1282 1286 1301 1313 1317 1318 1321 1329 1331 1336 1341 1343 1341 1342 1341 1334 1329 1326 1321 1318 1314 1307 1298 1287 1278 1267 1258 1245 1233 1221
1221 1219 1218 1223 1226 1228 1231 1236 1241 1248 1259 1267 1269 1274 1283 1294 1295 1303 1311 1318 1324 1327 1329 1334 1335 1334 1336 1334 1327 1323 1319 1316 1312 1307 1299 1290 1280 1270 1260 1248 1236 1222 1209
1208 1208 1209 1213 1216 1218 1223 1229 1237 1243 1249 1257 1263 1273 1282 1284 1289 1294 1304 1314 1319 1320 1323 1326 1328 1330 1331 1326 1321 1317 1313 1310 1307 1301 1292 1284 1273 1262 1252 1242 1229 1216 1202
1196 1199 1202 1205 1210 1214 1220 1226 1231 1239 1246 1250 1261 1271 1277 1285 1289 1294 1301 1308 1312 1315 1318 1319 1323 1326 1324 1319 1313 1310 1308 1305 1301 1294 1286 1278 1266 1257 1246 1236 1222 1209 1194
1191 1194 1197 1202 1208 1213 1218 1223 1229 1236 1243 1251 1258 1265 1272 1280 1286 1292 1298 1302 1307 1310 1312 1315 1318 1320 1318 1312 1307 1305 1303 1300 1296 1289 1280 1271 1263 1252 1241 1230 1217 1202 1189
1191 1194 1197 1201 1207 1213 1218 1223 1229 1235 1241 1250 1255 1263 1270 1278 1283 1288 1294 1299 1302 1305 1308 1311 1313 1313 1311 1307 1304 1302 1298 1295 1291 1284 1277 1268 1260 1248 1237 1226 1213 1199 1184
1194 1197 1200 1204 1209 1214 1219 1225 1230 1236 1244 1251 1259 1265 1271 1277 1282 1288 1292 1295 1298 1301 1304 1306 1307 1306 1304 1302 1299 1296 1293 1291 1287 1279 1272 1267 1257 1246 1235 1222 1209 1194 1180
1199 1201 1204 1208 1213 1218 1223 1228 1233 1240 1247 1255 1261 1266 1272 1277 1282 1286 1290 1293 1296 1299 1300 1301 1300 1300 1299 1296 1293 1290 1287 1285 1279 1272 1269 1262 1251 1242 1231 1218 1206 1192 1178